Regional Weather Roundup
Issued by NWS

Home | Current Version | Previous Version | Graphics & Text | Print | Product List | Glossary Off
Versions: 1 2 3 4 5 6 7 8 9 10 11 12 13 14 15 16 17 18 19 20 21 22 23 24 25 26 27 28 29 30 31 32 33 34 35 36 37 38 39 40 41 42 43 44 45 46 47 48 49 50

000
ASUS43 KMKX 270800
RWRWI

WISCONSIN REGIONAL WEATHER ROUNDUP
NATIONAL WEATHER SERVICE MILWAUKEE/SULLIVAN WI
300 AM CDT SAT MAY 27 2017

NOTE: "FAIR" INDICATES FEW OR NO CLOUDS BELOW 12,000 FEET WITH NO
SIGNIFICANT WEATHER AND/OR OBSTRUCTIONS TO VISIBILITY.

WIZ001-002-006>008-014>016-023>028-270900-
NORTHWEST WISCONSIN

CITY           SKY/WX    TMP DP  RH WIND       PRES   REMARKS
SUPERIOR ARPT  NOT AVBL
ASHLAND        CLEAR     52  51  97 SW6       29.79S
HAYWARD        FOG       48  46  93 CALM      29.83R VSB 1/4
SIREN          CLEAR     51  50  97 CALM      29.83S
CUMBERLAND     PTCLDY    52  52 100 W3        29.84S FOG
RICE LAKE      FOG       53  52  97 CALM      29.85S VSB 1/4
CHETEK         CLEAR     55  55 100 SW5       29.84S
LADYSMITH      CLEAR     58  56  94 CALM      29.85S
EAU CLAIRE     NOT AVBL
MENOMONIE      CLEAR     58  56  92 CALM      29.84F
NEW RICHMOND   CLEAR     53  46  76 CALM      29.85S
OSCEOLA        CLEAR     50  50 100 CALM      29.87S
$$

WIZ003>005-009-010-017-018-270900-
NORTH CENTRAL WISCONSIN

CITY           SKY/WX    TMP DP  RH WIND       PRES   REMARKS
MANITOWISH WTR CLOUDY    55  55 100 S5        29.83S
ARBOR VITAE    CLOUDY    58  55  91 SW5       29.84S
WOODRUFF       CLOUDY    58  55  91 SW5       29.84S
RHINELANDER    CLOUDY    58  54  86 SW8       29.86F
EAGLE RIVER    CLEAR     54  54 100 CALM      29.84F
LAND O LAKES   CLEAR     56  55  96 S3        29.86F
PHILLIPS       PTCLDY    56  56 100 S3        29.83S
TOMAHAWK       DRIZZLE   56  55  96 CALM      29.86F
MEDFORD        CLOUDY    58  55  87 S7        29.86S
MERRILL        RAIN      56  56 100 CALM      29.88S
$$

WIZ029-030-035-036-043>047-270900-
CENTRAL WISCONSIN

CITY           SKY/WX    TMP DP  RH WIND       PRES   REMARKS
WAUSAU         CLOUDY    56  53  90 CALM      29.86R
MOSINEE        MOCLDY    52  52 100 S7        29.88S
MARSHFIELD     CLOUDY    55  52  89 SW6       29.86S
STEVENS POINT  CLEAR     54  53  99 SW6       29.88S
WAUPACA        FOG       54  53  96 CALM      29.88S VSB 1
WAUTOMA        CLEAR     48  48 100 W3        29.88S
WISC RAPIDS    PTCLDY    52  51  97 CALM      29.89R FOG
CAMP DOUGLAS   PTCLDY    50  50 100 E5        29.87S
$$

WIZ011>013-019>022-031-037>040-048>050-270900-
NORTHEAST WISCONSIN

CITY           SKY/WX    TMP DP  RH WIND       PRES   REMARKS
ANTIGO         CLEAR     52  51  98 SW3       29.88S
SHAWANO        CLEAR     56  53  92 CALM      29.87F
OCONTO         MOCLDY    51  50  96 CALM      29.86S
STURGEON BAY   PTCLDY    50  49  96 CALM      29.88S
GREEN BAY      CLEAR     56  55  97 SW3       29.87F
MANITOWOC      NOT AVBL
APPLETON       CLEAR     52  50  93 SW5       29.86F
CLINTONVILLE   CLEAR     52  52 100 CALM      29.87S FOG
OSHKOSH        CLEAR     51  49  92 CALM      29.87F
$$

WIZ032>034-041-042-053>061-270900-
SOUTHWEST WISCONSIN

CITY           SKY/WX    TMP DP  RH WIND       PRES   REMARKS
LA CROSSE      CLOUDY    60  58  92 S7        29.86F
SPARTA         CLOUDY    51  51  99 CALM      29.88S
VIROQUA        CLOUDY    56  55  97 SW5       29.89S
BOSCOBEL       FOG       53  52  96 CALM      29.88F VSB 1/4
PRAIRIE DU CHI CLEAR     53  52  95 CALM      29.88S
PLATTEVILLE    CLEAR     54  54 100 E5        29.89R
$$

WIZ056-057-062-063-064-067-068-270900-
SOUTH CENTRAL WISCONSIN

CITY           SKY/WX    TMP DP  RH WIND       PRES   REMARKS
REEDSBURG      CLEAR     51  51 100 CALM      29.88R
BARABOO/DELLS  CLEAR     50  48  93 CALM      29.87S FOG
LONE ROCK      NOT AVBL
MINERAL POINT  CLEAR     55  55 100 CALM      29.89R
MADISON        PTCLDY    49  48  97 CALM      29.87S FOG
MIDDLETON      CLOUDY    49  49 100 CALM      29.88F VSB 1/4
WATERTOWN      PTCLDY    47  47 100 CALM      29.88F
MONROE         CLEAR     54  52  94 E6        29.87F
JANESVILLE     FOG       52  52 100 CALM      29.88S VSB 1/4
$$

WIZ051-052-058>065-066-070>072-270900-
SOUTHEAST WISCONSIN

CITY           SKY/WX    TMP DP  RH WIND       PRES   REMARKS
MILWAUKEE      CLOUDY    53  52  96 CALM      29.88S
WAUKESHA       PTCLDY    50  50 100 CALM      29.90S FOG
MILWAUKEE/TIMM   N/A     54  50  87 CALM      29.89S FOG
RACINE         CLEAR     48  47  96 CALM      29.90S FOG
KENOSHA        CLOUDY    50  50 100 CALM      29.88S FOG
FOND DU LAC    CLEAR     51  48  89 S3        29.88F FOG
SHEBOYGAN      CLEAR     50  50 100 CALM      29.88S FOG
WEST BEND      CLEAR     48  48 100 CALM      29.88F FOG
JUNEAU         CLEAR     51  50  97 CALM      29.89F FOG
$$

LSZ147-162-270900-
LAKE SUPERIOR

STATION/POSITION TIME  TEMP    WIND        PRES    WAVE
                       AIR SEA DIR/SP/G            HT/PER
                 (UTC) (F)     (DEG/KT/KT) (MB)    (FT/S)
W MID LAKE BUOY  0650   44 37  140/  6/  8 1008.7R   0
DEVILS ISLAND    0700   43     220/  7/  8 1009.1R
PORT WING        0540   44     190/  2/  3 1009.5R
SAXON HARBOR     0730   61     190/  5/  8 1008.5R
$$

LMZ867-665-643>646-270900-
LAKE MICHIGAN

STATION/POSITION TIME  TEMP    WIND        PRES    WAVE
                       AIR SEA DIR/SP/G            HT/PER
                 (UTC) (F)     (DEG/KT/KT) (MB)    (FT/S)
CHAMBERS ISLAND  0740   54     140/  2/  4 1011.2S
N MID LAKE BUOY  0650   45 42  200/  4/  4 1013.1R   0
NORTHPORT PIER   0740   51     150/  5/  6 1011.9S
KEWAUNEE LAKESHO 0730   50     140/  4/  4 1011.5F
SHEBOYGAN LAKESH 0700   52     180/  5/  5 1011.8R
PORT WASHINGTON  0740   50      50/  2/  2 1012.9S
ATWATER BUOY     0609   48     250/  2/  2 1012.1R
MILWAUKEE LAKESH 0730   50     140/  2/  2   N/A
S MID LAKE BUOY  0650   48 46   30/  6/  8 1011.7F   0
KENOSHA   LAKESH 0700   50      10/  5/  6 1011.9
$$

TC  - TEMPERATURE IN CELSIUS
VSB - VISIBILITY IN STATUTE MILES
WCI - WIND CHILL INDEX
HX  - HEAT INDEX





USA.gov is the U.S. government's official web portal to all federal, state and local government web resources and services.